Location: Starlight Observatory
(38.4029°N, 85.8936°W)
Time: 04:47:54
(UTC-04:00)

Daily predictions for brighter satellites

Satellite Brightness Start Highest point End
(mag) Time Altitude Azimuth Time Altitude Azimuth Time Altitude Azimuth
ASTEX 1 3.5 00:07:59 10° N 00:12:25 71° NNE 00:12:25 71° NNE
Spot 4 4.1 00:13:28 65° WNW 00:13:28 65° WNW 00:18:02 10° NNW
Timation 1 Rocket 4.5 00:15:58 60° E 00:15:58 60° E 00:21:19 10° NNE
Terra 2.6 00:16:52 44° W 00:16:52 44° W 00:21:14 10° NNW
Cosmos 614 Rocket 4.2 00:11:42 10° NNW 00:16:24 62° W 00:16:24 62° W
Cosmos 1140 Rocket 4.3 00:12:48 10° NW 00:17:33 39° WSW 00:17:37 39° WSW
Okean 1 Rocket 4.1 00:24:31 41° NNE 00:24:31 41° NNE 00:27:31 10° NNE
BREEZE-M DEB (TANK) 4.1 00:21:43 10° WNW 00:26:27 32° W 00:26:27 32° W
Cosmos 2278 Rocket 4.2 00:26:42 10° WSW 00:31:14 24° NW 00:35:49 10° N
Meteor 1-11 Rocket 4.1 00:33:06 54° ENE 00:33:06 54° ENE 00:38:06 10° NNE
USA 234 4.3 00:27:38 10° NE 00:33:43 43° NNW 00:39:46 10° WSW
Cosmos 1833 Rocket 2.8 00:33:54 10° NNW 00:39:00 72° NW 00:39:00 72° NW
Cosmos 1000 Rocket 4.4 00:33:21 10° N 00:39:32 75° ENE 00:39:32 75° ENE
Cosmos 2082 Rocket 2.8 00:46:39 10° NNW 00:51:28 47° W 00:51:28 47° W
Cosmos 2285 Rocket 4.3 01:13:36 59° ENE 01:13:36 59° ENE 01:19:01 10° NNE
Meteor 2-14 Rocket 4.5 01:14:12 75° N 01:14:12 75° N 01:19:48 10° N
Cosmos 1821 Rocket 4.2 01:16:09 65° WNW 01:16:09 65° WNW 01:22:18 10° N
Cosmos 1605 Rocket 4.1 01:16:56 70° NE 01:16:56 70° NE 01:22:48 10° N
Meteor 2-15 4.5 01:13:21 10° N 01:18:53 74° N 01:18:53 74° N
USA 229 DEB 4.2 01:16:58 10° NW 01:23:13 50° W 01:23:13 50° W
USA 229 4.2 01:17:03 10° NW 01:23:20 50° W 01:23:20 50° W
Iridium 4 Rocket 4.5 01:24:19 10° NNW 01:29:22 46° WNW 01:29:22 46° WNW
Cosmos 2123 Rocket 4.1 01:26:54 10° N 01:32:36 70° NW 01:32:36 70° NW
Cosmos 1934 Rocket 4.4 01:36:52 52° WNW 01:36:52 52° WNW 01:42:26 10° N
Cosmos 2369 Rocket 2.7 01:43:16 56° NNE 01:43:16 56° NNE 01:47:40 10° NNE
NOSS 3-1 (A) 4.1 01:34:54 10° NNW 01:42:33 70° NE 01:44:02 59° ESE
H-2A R/B 4.3 01:43:42 10° N 01:46:31 32° NNW 01:46:31 32° NNW
Lacrosse 5 rocket 4.0 02:02:21 15° NNE 02:02:21 15° NNE 02:03:10 10° NNE
ATLAS 2AS CENTAUR R/B 4.0 01:56:19 10° NNW 02:03:56 42° NE 02:08:36 22° ESE
Lacrosse 5 2.9 02:06:21 43° N 02:06:21 43° N 02:10:06 10° NE
CZ-2C R/B 3.2 02:02:52 10° N 02:06:52 53° N 02:06:52 53° N
NOSS 3-1 (C) 4.1 02:07:20 10° NW 02:14:47 64° WSW 02:14:47 64° WSW
CZ-2C R/B 3.8 02:19:47 49° NNW 02:19:47 49° NNW 02:23:24 10° NNW
Cosmos 1943 Rocket 2.5 02:34:07 62° N 02:34:07 62° N 02:38:47 10° NNE
Cosmos 2100 Rocket 4.3 02:37:13 59° WNW 02:37:13 59° WNW 02:43:15 10° N
Cosmos 2061 Rocket 4.2 02:40:23 62° WNW 02:40:23 62° WNW 02:46:33 10° N
Cosmos 44 Rocket 4.5 02:42:09 10° NNW 02:46:57 39° NE 02:47:25 38° ENE
Meteor 1-21 4.5 02:45:27 10° N 02:50:49 61° ENE 02:50:49 61° ENE
Cosmos 1802 Rocket 4.4 02:58:40 50° WNW 02:58:40 50° WNW 03:04:31 10° N
Cosmos 2233 Rocket 4.3 02:59:20 54° ESE 02:59:46 55° E 03:05:44 10° NNE
Cosmos 2016 Rocket 4.2 03:01:30 56° WNW 03:01:30 56° WNW 03:07:16 10° N
Cosmos 1241 Rocket 4.5 02:58:09 10° NNW 03:04:41 82° ENE 03:05:27 70° SE
Cosmos 2098 Rocket 3.9 03:05:21 81° SW 03:05:41 86° W 03:13:01 10° N
SeaSat 1 3.5 03:13:20 37° NW 03:13:20 37° NW 03:16:25 10° NNW
Cosmos 1818 4.5 03:12:07 39° WNW 03:12:17 39° NW 03:17:25 10° NNE
SL-08 R/B 4.1 03:12:34 44° ENE 03:12:43 44° ENE 03:17:09 10° N
BREEZE-M DEB (TANK) 4.0 03:07:04 10° WNW 03:18:54 53° NNE 03:22:11 12° E
Cosmos 968 Rocket 4.5 03:20:24 10° NNW 03:23:51 36° WNW 03:23:51 36° WNW
Cosmos 2369 Rocket 4.4 03:25:02 12° WNW 03:26:49 13° NW 03:29:32 10° NNW
Geosat 4.0 03:23:26 10° NNE 03:28:15 76° E 03:28:15 76° E
Meteor 2-9 Rocket 4.1 03:28:59 81° SSW 03:29:18 88° W 03:35:11 10° N
NOSS 3-3 (A) 3.9 03:31:06 68° WSW 03:31:54 79° NW 03:38:36 10° NNE
NOSS 3-3 (C) 3.9 03:31:12 68° WSW 03:32:00 80° NW 03:38:41 10° NNE
Cosmos 2219 3.1 03:26:31 10° NNW 03:31:46 71° WNW 03:31:46 71° WNW
ARIANE 5 R/B 4.0 03:29:36 10° NE 03:33:58 28° E 03:35:16 25° ESE
Cosmos 1725 Rocket 4.4 03:34:24 46° W 03:34:40 46° WNW 03:40:36 10° N
Milstar 3 Cent rocket 4.1 03:39:47 18° SE 03:39:47 18° SE 03:42:36 10° ESE
Cosmos 44 4.1 03:35:04 10° NNW 03:40:07 51° NE 03:42:36 26° ESE
Cosmos 2208 Rocket 3.9 03:40:15 76° WNW 03:40:15 76° WNW 03:45:28 10° NNE
Meteor 2-17 Rocket 4.3 03:39:51 67° SW 03:40:33 75° W 03:46:42 10° N
Cosmos 1340 4.3 03:36:49 10° NNW 03:38:47 29° NNW 03:38:47 29° NNW
Cosmos 2227 Rocket 3.6 03:35:29 10° N 03:40:41 35° ENE 03:45:50 10° SE
Tsikada Rocket 4.3 03:34:42 10° NNW 03:40:42 48° W 03:40:51 48° W
CZ-2D R/B 3.9 03:36:44 10° NE 03:41:13 25° E 03:43:29 19° SE
Cosmos 1816 Rocket 4.5 03:35:12 10° NNW 03:41:23 62° W 03:41:53 60° WSW
SL-16 R/B 3.9 03:36:28 10° SE 03:41:58 35° ENE 03:47:28 10° N
IRS-1C 4.1 03:39:00 10° NNE 03:44:21 72° ESE 03:44:58 65° SSE
Lacrosse 5 4.4 03:46:07 10° WNW 03:49:03 15° NNW 03:52:00 10° NNE
Cosmos 2278 3.9 03:51:23 51° SSE 03:52:25 60° ESE 03:57:59 10° NNE
Cosmos 2369 4.1 03:51:18 45° SE 03:52:28 52° ESE 03:57:57 10° NNE
Cosmos 1666 4.5 03:55:17 24° NW 03:55:17 24° NW 03:57:18 10° NNW
IRS-1D 4.5 03:49:19 10° NNE 03:53:56 38° E 03:55:21 31° SE
ATLAS 2AS CENTAUR R/B 3.1 03:47:28 10° NW 03:55:04 48° WSW 03:55:56 46° SW
USA 161 3.7 03:57:20 27° NE 03:57:20 27° NE 03:59:07 10° N
Okean O Rocket 4.5 03:56:50 10° E 03:57:26 10° E 03:58:01 10° E
CBERS-1 3.9 03:52:28 10° N 03:57:35 68° WNW 03:58:01 65° WSW
Cosmos 405 Rocket 3.8 03:57:50 10° N 04:01:45 43° ENE 04:02:38 37° ESE
Cosmos 2297 Rocket 3.6 03:57:34 10° N 04:02:48 37° ENE 04:08:01 10° SE
ATLAS CENTAUR R/B 3.1 04:03:58 28° SE 04:05:07 31° ESE 04:09:32 10° NE
IRAS Rocket 4.4 04:05:10 10° N 04:10:40 59° WNW 04:11:52 48° WSW
Cosmos 2228 4.3 04:12:56 28° WNW 04:12:56 28° WNW 04:16:06 10° NNW
GEOS 3 Rocket 3.8 04:10:23 10° SE 04:15:35 74° NE 04:20:46 10° NNW
Cosmos 1943 Rocket 4.4 04:15:38 10° WNW 04:17:48 12° NW 04:20:01 10° NNW
EO 1 Del DPAF 4.5 04:17:32 22° SE 04:19:38 41° ENE 04:23:18 10° N
NPP 4.4 04:15:52 10° N 04:20:45 36° WNW 04:21:45 33° W
SL-24 R/B 4.4 04:24:09 30° SSE 04:26:45 88° ENE 04:31:30 10° NNW
Cosmos 1812 Rocket 4.0 04:29:59 43° W 04:30:18 43° W 04:34:35 10° N
Cosmos 2150 Rocket 4.0 04:27:08 10° NNW 04:32:24 81° ENE 04:36:55 14° SSE
SL-8 R/B 3.5 04:27:40 10° WNW 04:32:25 66° SW 04:37:09 10° SE
Cosmos 468 Rocket 3.9 04:32:14 43° SSW 04:34:00 84° WNW 04:39:13 10° NNE
Resurs 1-4 Rocket 2.1 04:29:25 10° NNE 04:34:44 81° ESE 04:37:12 33° S
Cosmos 1464 Rocket 4.2 04:35:07 36° SW 04:37:25 53° W 04:43:36 10° N
Cosmos 1707 2.7 04:37:41 10° NNW 04:41:36 65° W 04:42:16 53° SW
ERS-2 3.6 04:40:25 10° NNW 04:43:27 24° WNW 04:43:27 24° WNW
BREEZE-M DEB (TANK) 3.8 04:44:12 10° WNW 04:50:53 - SE 04:45:37 19° WNW
NOSS 2-1 (D) 3.5 04:49:20 41° WSW 04:50:26 59° NW 04:54:44 10° NNE
ADEOS 4.5 04:46:01 10° N 04:50:39 33° WNW 04:52:23 27° WSW
NOSS 2-1 (C) 3.6 04:50:37 40° WSW 04:51:46 59° NW 04:56:04 10° NNE
Cosmos 1898 Rocket 3.5 04:46:47 10° NNW 04:52:05 66° WSW 04:56:35 14° S
Okean 3 Rocket 3.7 04:51:23 10° NNW 04:55:40 51° W 04:57:17 33° SSW
Meteor 2-5 Rocket 4.2 04:50:39 10° NNW 04:56:12 46° W 04:59:14 25° SSW
Cosmos 1092 Rocket 4.2 04:50:44 10° N 04:57:01 74° E 05:03:18 10° SSE
SME Rocket 4.1 04:55:33 25° SSW 04:58:22 51° W 05:05:30 10° NNW
BREEZE-M DEB (TANK) 4.2 04:56:31 10° NW 04:58:51 23° N 05:02:06 10° ENE
BREEZE-M DEB (TANK) 4.1 04:55:47 17° W 04:59:23 34° NW 05:01:58 10° NE
ISS -0.3 04:59:53 10° NNW 05:02:13 18° NNE 05:04:32 10° ENE
GPS 2-04 Rocket1 3.1 05:01:21 35° SSW 05:02:16 41° SSE 05:05:50 10° E
Cosmos 1656 3.7 05:02:20 26° SW 05:05:40 70° WNW 05:11:21 10° NNE
NOSS 2-1 (E) 4.0 05:05:12 28° WSW 05:06:52 45° NW 05:11:10 10° NNE
Cosmos 841 Rocket 3.5 05:04:53 20° SSW 05:08:36 83° ESE 05:13:54 10° NNE
ASTRO E2 3.6 05:07:59 28° SSW 05:08:42 30° S 05:12:16 10° ESE
OAO 3 Rocket 4.1 05:09:20 26° SW 05:09:49 26° SSW 05:13:45 10° SSE
Cosmos 1937 Rocket 3.4 05:04:44 10° NNW 05:09:51 63° WSW 05:14:58 10° S
Cosmos 2082 4.0 05:05:55 10° NW 05:11:11 42° WSW 05:16:25 10° S
ARIANE 5 R/B 3.4 05:08:32 10° N 05:13:03 32° WNW 05:15:36 21° WSW
Cosmos 1697 Rocket 2.7 05:10:26 21° SSW 05:14:21 80° WNW 05:20:03 10° NNE
PSLV R/B 3.8 05:11:35 10° NNE 05:15:29 78° ESE 05:18:26 16° S
NOSS 3-4 (A) 3.8 05:10:46 10° NNW 05:17:51 88° SW 05:25:19 10° SSE
NOSS 3-4 (C) 3.8 05:10:52 10° NNW 05:17:58 89° WSW 05:25:28 10° SSE
Cosmos 1763 Rocket 3.5 05:14:36 20° SSW 05:18:15 70° WNW 05:23:28 10° NNE
Cosmos 2142 Rocket 4.5 05:13:39 10° S 05:19:48 87° E 05:25:58 10° N
Cosmos 1980 Rocket 2.4 05:15:59 13° SSW 05:20:56 71° ESE 05:26:35 10° NNE
In-Cosmos 22 4.2 05:15:46 10° N 05:21:04 77° E 05:26:21 10° SSE
CZ-2D R/B 2.8 05:16:19 10° N 05:21:22 39° WNW 05:24:49 18° SW
Thor Agena Rocket 4.1 05:16:32 10° SSE 05:21:28 58° ENE 05:26:25 10° N
MTI 4.2 05:20:08 23° SSW 05:21:45 42° W 05:24:54 10° NNW
Cosmos 2227 Rocket 3.0 05:19:42 10° NW 05:24:35 30° WSW 05:29:11 11° SSW
SL-16 R/B 3.1 05:21:04 15° SSW 05:25:30 34° W 05:31:05 10° NNW
CZ-2D R/B 3.9 05:24:03 10° N 05:28:12 49° WNW 05:31:25 17° SW
Cosmos 2322 Rocket 3.8 05:25:24 10° SSE 05:30:16 31° ESE 05:35:08 10° NE
Cosmos 1766 4.3 05:29:21 19° SW 05:31:20 30° WNW 05:34:52 10° NNW
Cosmos 1674 4.4 05:30:33 10° NNE 05:34:03 34° ENE 05:37:29 10° SE
Okean O Rocket 1.7 05:29:50 10° N 05:34:11 64° WNW 05:38:15 12° SSW
CZ-3 Stage 3 4.2 04:54:25 10° W 05:34:55 59° SSW 05:41:21 10° ESE
Cosmos 1758 3.4 05:32:17 13° SSW 05:35:49 61° W 05:39:48 10° N
Cosmos 2279 Rocket 4.2 05:33:31 10° S 05:39:45 77° E 05:46:01 10° N
ADEOS Rocket 4.4 05:34:33 10° NNE 05:40:39 43° E 05:47:21 10° S
BREEZE-M DEB (TANK) 3.2 05:36:46 14° WSW 05:40:53 57° NW 05:45:06 10° NE
Cosmos 1544 3.2 05:37:18 10° S 05:40:58 80° E 05:44:38 10° N
Cosmos 1437 2.9 05:37:56 10° N 05:41:16 81° E 05:44:36 10° S
Cosmos 1500 Rocket 4.0 05:37:20 10° N 05:41:45 67° E 05:46:04 10° SSE
UNKNOWN OBJECT B 4.2 05:39:23 10° NNW 05:42:28 22° WNW 05:44:49 13° WSW
Cosmos 1953 2.7 05:39:53 12° SSW 05:43:22 47° W 05:47:18 10° N
Cosmos 1655 Rocket 4.1 05:37:40 10° N 05:44:07 89° ENE 05:50:31 10° S
ATLAS CENTAUR R/B 2.8 05:40:19 14° WSW 05:44:11 34° NW 05:48:45 10° NNE
Cosmos 1743 Rocket 3.5 05:41:04 10° N 05:45:23 74° W 05:49:43 10° S
Cosmos 2297 Rocket 3.0 05:41:55 10° NW 05:46:39 28° WSW 05:51:22 10° SSW
IRS-1C Rocket 4.4 05:41:45 10° N 05:46:48 49° WNW 05:51:50 10° SW
Cosmos 2360 4.3 05:45:29 10° SSW 05:51:11 87° ESE 05:56:55 10° NNE
ADEOS II 3.0 05:46:12 10° NNE 05:51:18 49° E 05:56:23 10° S
USA 81 4.1 05:47:40 10° SSW 05:52:54 66° W 05:58:11 10° N
Cosmos 540 Rocket 3.5 05:52:00 10° SSW 05:57:11 87° ESE 06:02:23 10° NNE
SL-16 R/B 3.0 05:55:03 10° S 06:00:32 54° ESE 06:06:03 10° NNE
CZ-2C R/B 4.5 05:59:36 10° SSW 06:03:51 33° W 06:08:04 10° NNW
Aureole 1 Rocket 4.1 05:58:34 10° SSW 06:03:51 79° ESE 06:10:57 10° NNE
Cosmos 2151 3.9 06:00:50 10° N 06:05:05 55° E 06:09:18 10° SSE
Cosmos 1805 4.4 06:05:00 10° SW 06:08:18 26° WNW 06:11:36 10° NNW
RESURS DK-1 3.6 06:06:52 10° NNW 06:10:54 49° ENE 06:14:54 10° SE
